Weather History for KJST - January, 2013

Change the Weather History Date:

Tuesday, January 29, 2013

  Actual Average Record
Temperature  
Mean Temperature 52 °F 25 °F  
Max Temperature 57 °F 32 °F 71 °F (1914)
Min Temperature 46 °F 18 °F -13 °F (1963)
Degree Days  
Heating Degree Days 14 40  
Month to date heating degree days 1153  
Since 1 July heating degree days 3737  
Cooling Degree Days 0 0  
Month to date cooling degree days 0  
Year to date cooling degree days 0  
Growing Degree Days 2 (Base 50)    
Moisture  
Dew Point 47 °F    
Average Humidity 88    
Maximum Humidity 100    
Minimum Humidity 69    
Precipitation  
Precipitation 0.06 in 0.08 in 1.40 in (1969)
Month to date precipitation 2.71  
Year to date precipitation 2.71  
Sea Level Pressure  
Sea Level Pressure 30.00 in    
Wind  
Wind Speed 13 mph (SW)    
Max Wind Speed 20 mph    
Max Gust Speed 30 mph    
Visibility 4 miles    
Events Fog , Rain    
T = Trace of Precipitation, MM = Missing Value Source: NWS Daily Summary

Daily Weather History Graph

Daily Weather History Graph

Search for Another Location

Airport or City:

Trip Planner

Search our weather history database for the weather conditions in past years. The results will help you decide how hot, cold, wet, or windy it might be!

Date:

Astronomy

Jan. 29, 2013 Rise Set
Actual Time 7:26 AM EST 5:30 PM EST
Civil Twilight 6:58 AM EST 5:59 PM EST
Nautical Twilight 6:25 AM EST 6:32 PM EST
Astronomical Twilight 5:53 AM EST 7:04 PM EST
Moon 8:25 PM EST 8:22 AM EST
Length of Visible Light 11h 01m
Length of Day
10h 03m
Waning Gibbous, 94% of the Moon is Illuminated
Jan 29
Waning Gibbous
Feb 3
Last Quarter
Feb 10
New
Feb 17
First Quarter
Feb 25
Full

Hourly Weather History & Observations

Time (EST) Temp. Windchill Dew Point Humidity Pressure Visibility Wind Dir Wind Speed Gust Speed Precip Events Conditions
12:07 AM 46.4 °F 39.2 °F 46.4 °F 100% 30.01 in 0.8 mi West 18.4 mph 29.9 mph 0.01 in Rain Light Rain
12:54 AM 46.9 °F - 46.0 °F 97% 30.03 in 1.0 mi West 19.6 mph 27.6 mph 0.01 in   Mist
1:03 AM 46.4 °F 40.1 °F 46.4 °F 100% 30.00 in 0.5 mi West 15.0 mph 27.6 mph N/A Fog Fog
1:10 AM 46.4 °F 40.1 °F 46.4 °F 100% 30.01 in 0.2 mi West 15.0 mph 23.0 mph N/A Fog Fog
1:54 AM 46.9 °F - 46.0 °F 97% 30.04 in 0.2 mi West 17.3 mph 24.2 mph 0.01 in Fog , Rain Light Rain
2:54 AM 46.9 °F - 46.0 °F 97% 30.04 in 0.2 mi West 15.0 mph 23.0 mph 0.00 in Fog , Rain Light Rain
3:54 AM 46.9 °F - 46.9 °F 100% 30.04 in 0.2 mi West 11.5 mph - 0.01 in Fog Fog
4:54 AM 46.9 °F - 46.0 °F 97% 30.05 in 0.2 mi West 12.7 mph - 0.00 in Fog Fog
5:54 AM 46.9 °F - 46.9 °F 100% 30.05 in 0.2 mi West 10.4 mph - 0.01 in Fog , Rain Light Rain
7:54 AM 46.9 °F - 46.9 °F 100% 30.06 in 0.2 mi WSW 5.8 mph - 0.01 in Fog , Rain Light Rain
8:54 AM 48.0 °F - 46.9 °F 96% 30.07 in 0.2 mi SSW 5.8 mph - 0.00 in Fog Fog
10:54 AM 48.9 °F - 48.0 °F 97% 30.07 in 0.2 mi SSW 8.1 mph - 0.01 in Fog , Rain Light Rain
11:54 AM 50.0 °F - 48.9 °F 96% 30.04 in 0.8 mi South 11.5 mph - 0.00 in   Mist
12:01 PM 50.0 °F - 48.2 °F 94% 30.02 in 1.5 mi SSW 12.7 mph 20.7 mph N/A   Overcast
12:09 PM 50.0 °F - 48.2 °F 94% 30.01 in 2.0 mi SSW 11.5 mph 20.7 mph N/A   Overcast
12:28 PM 50.0 °F - 48.2 °F 94% 30.00 in 3.0 mi SSW 11.5 mph - N/A   Overcast
12:54 PM 51.1 °F - 48.9 °F 92% 30.01 in 5.0 mi SSW 10.4 mph - N/A   Overcast
1:54 PM 53.1 °F - 48.9 °F 86% 29.99 in 10.0 mi SSW 9.2 mph - N/A   Overcast
2:54 PM 55.9 °F - 48.9 °F 77% 29.97 in 10.0 mi SSW 12.7 mph 21.9 mph N/A   Clear
3:54 PM 57.0 °F - 48.9 °F 74% 29.96 in 10.0 mi SW 11.5 mph - N/A   Clear
4:54 PM 57.9 °F - 48.9 °F 72% 29.95 in 10.0 mi SSW 10.4 mph - N/A   Partly Cloudy
5:54 PM 57.9 °F - 48.0 °F 70% 29.95 in 10.0 mi SSW 10.4 mph - N/A   Clear
6:54 PM 57.0 °F - 48.0 °F 72% 29.95 in 10.0 mi South 3.5 mph - N/A   Clear
7:54 PM 55.9 °F - 46.9 °F 72% 29.94 in 10.0 mi South 10.4 mph - N/A   Clear
8:54 PM 57.0 °F - 46.9 °F 69% 29.92 in 10.0 mi South 15.0 mph - N/A   Clear
9:54 PM 57.0 °F - 48.0 °F 72% 29.92 in 10.0 mi SSW 6.9 mph - N/A   Clear
10:54 PM 55.9 °F - 46.9 °F 72% 29.90 in 10.0 mi South 13.8 mph 19.6 mph N/A   Clear
11:54 PM 55.0 °F - 46.9 °F 74% 29.88 in 10.0 mi South 11.5 mph - N/A   Clear